Elko, NV

8:09 AM PDT on April 29, 2017 (GMT -0700)
Elko Regional

Weather History for KEKO - January, 2012

Change the Weather History Date:

Wednesday, January 25, 2012

  Actual Average Record
Temperature  
Mean Temperature 32 °F 26 °F  
Max Temperature 39 °F 37 °F 58 °F (1953)
Min Temperature 24 °F 14 °F -38 °F (1949)
Degree Days  
Heating Degree Days 33 40  
Month to date heating degree days 893 1000  
Since 1 July heating degree days 3624 3948  
Cooling Degree Days 0 0  
Month to date cooling degree days 0 0  
Year to date cooling degree days 0 0  
Moisture  
Dew Point 30 °F    
Average Humidity 91    
Maximum Humidity 100    
Minimum Humidity 82    
Precipitation  
Precipitation 0.06 in 0.03 in 0.66 in (1930)
Month to date precipitation 0.91 0.93  
Year to date precipitation 0.91 0.93  
Snow  
Snow T in 0.30 in 7.00 in (1997)
Month to date snowfall 5.9 8.7  
Since 1 July snowfall 8.9 24.3  
Snow Depth 3.00 in    
Sea Level Pressure  
Sea Level Pressure 30.41 in    
Wind  
Wind Speed 1 mph (WNW)    
Max Wind Speed 7 mph    
Max Gust Speed 9 mph    
Visibility 7 miles    
Events Fog , Rain    
T = Trace of Precipitation, MM = Missing Value Source: NWS Daily Summary

Daily Weather History Graph

Daily Weather History Graph

Search for Another Location

Airport or City:

Trip Planner

Search our weather history database for the weather conditions in past years. The results will help you decide how hot, cold, wet, or windy it might be!

Date:

Astronomy

Jan. 25, 2012 Rise Set
Actual Time 6:59 AM PST 4:51 PM PST
Civil Twilight 6:30 AM PST 5:21 PM PST
Nautical Twilight 5:57 AM PST 5:54 PM PST
Astronomical Twilight 5:24 AM PST 6:26 PM PST
Moon 7:59 AM PST (1/25) 7:50 PM PST (1/25)
Length of Visible Light 10h 50m
Length of Day
9h 51m
Waxing Crescent, 7% of the Moon is Illuminated
Jan 25
Waxing Crescent
Jan 30
First Quarter
Feb 7
Full
Feb 14
Last Quarter
Feb 21
New

Hourly Weather History & Observations

Time (PST) Temp. Windchill Dew Point Humidity Pressure Visibility Wind Dir Wind Speed Gust Speed Precip Events Conditions
12:56 AM 32.0 °F - 30.9 °F 96% 30.46 in 10.0 mi Calm Calm - 0.00 in   Overcast
1:56 AM 30.2 °F - 30.2 °F 100% 30.42 in 10.0 mi Calm Calm - N/A   Mostly Cloudy
2:56 AM 30.0 °F - 28.0 °F 92% 30.48 in 10.0 mi Calm Calm - N/A   Partly Cloudy
3:56 AM 30.0 °F - 28.9 °F 96% 30.48 in 10.0 mi Calm Calm - N/A   Overcast
4:56 AM 28.0 °F - 26.1 °F 92% 30.50 in 10.0 mi Calm Calm - N/A   Mostly Cloudy
5:56 AM 27.0 °F - 25.0 °F 92% 30.51 in 10.0 mi Calm Calm - N/A   Clear
6:56 AM 27.0 °F 23.0 °F 25.0 °F 92% 30.49 in 10.0 mi ENE 3.5 mph - N/A   Clear
7:56 AM 26.1 °F - 25.0 °F 96% 30.50 in 10.0 mi Calm Calm - N/A   Clear
8:56 AM 28.4 °F - 26.6 °F 93% 30.42 in 10.0 mi Calm Calm - N/A   Mostly Cloudy
9:56 AM 32.0 °F 27.5 °F 30.0 °F 92% 30.49 in 10.0 mi SSW 4.6 mph - N/A   Scattered Clouds
10:56 AM 35.1 °F 31.0 °F 30.0 °F 82% 30.48 in 10.0 mi West 4.6 mph - N/A   Overcast
11:56 AM 37.4 °F - 32.0 °F 81% 30.42 in 10.0 mi Calm Calm - N/A   Overcast
12:56 PM 37.0 °F - 33.1 °F 86% 30.45 in 5.0 mi Calm Calm - 0.01 in Rain Light Rain
1:56 PM 37.4 °F 34.9 °F 35.6 °F 93% 30.39 in 9.0 mi WNW 3.5 mph - N/A Rain Light Rain
2:32 PM 39.2 °F - 35.6 °F 87% 30.38 in 7.0 mi Calm Calm - 0.01 in Rain Light Rain
2:56 PM 37.9 °F 35.5 °F 36.0 °F 93% 30.42 in 9.0 mi WNW 3.5 mph - 0.01 in   Overcast
3:56 PM 37.4 °F - 35.6 °F 93% 30.36 in 10.0 mi Calm Calm - N/A   Overcast
4:56 PM 37.0 °F - 35.1 °F 93% 30.43 in 10.0 mi Calm Calm - N/A   Overcast
5:56 PM 36.0 °F 33.3 °F 34.0 °F 93% 30.42 in 10.0 mi NW 3.5 mph - N/A   Overcast
6:56 PM 35.1 °F - 33.1 °F 92% 30.43 in 10.0 mi Calm Calm - N/A   Overcast
7:56 PM 34.0 °F - 33.1 °F 96% 30.44 in 7.0 mi Calm Calm - N/A   Overcast
8:56 PM 32.0 °F 26.4 °F 30.9 °F 96% 30.42 in 7.0 mi NNW 5.8 mph - N/A   Clear
9:33 PM 30.2 °F - 30.2 °F 100% 30.33 in 1.8 mi Calm Calm - N/A   Clear
9:44 PM 30.2 °F - 30.2 °F 100% 30.33 in 3.0 mi Calm Calm - N/A   Clear
9:56 PM 30.0 °F 26.5 °F 30.0 °F 100% 30.40 in 8.0 mi NNW 3.5 mph - N/A   Clear
10:13 PM 28.4 °F - 28.4 °F 100% 30.33 in 9.0 mi Calm Calm - N/A   Scattered Clouds
10:16 PM 28.4 °F - 28.4 °F 100% 30.33 in 1.2 mi Calm Calm - N/A   Scattered Clouds
10:20 PM 28.4 °F - 28.4 °F 100% 30.33 in 0.2 mi Calm Calm - N/A Fog Light Freezing Fog
10:46 PM 26.6 °F 22.6 °F 26.6 °F 100% 30.34 in 0.8 mi WSW 3.5 mph - N/A   Mist
10:52 PM 26.6 °F - 26.6 °F 100% 30.34 in 2.0 mi Calm Calm - N/A   Mostly Cloudy
10:56 PM 26.6 °F - 26.6 °F 100% 30.34 in 1.8 mi Calm Calm - N/A   Mostly Cloudy
11:00 PM 26.6 °F - 26.6 °F 100% 30.34 in 0.8 mi Calm Calm - N/A   Mist
11:12 PM 26.6 °F - 26.6 °F 100% 30.33 in 0.2 mi Calm Calm - N/A Fog Light Freezing Fog
11:29 PM 28.4 °F - 26.6 °F 93% 30.33 in 0.2 mi Calm Calm - N/A Fog Light Freezing Fog
11:56 PM 27.0 °F - 26.1 °F 96% 30.38 in 0.5 mi Calm Calm - N/A Fog Light Freezing Fog